Weather in Gikalovskiy

Russia / Chechen Republic     43°13′29″N   45°43′56″E
temp.,
°C
wind,
m/s
gust,
m/s
humid.,
%
clouds,
%
prec.,
mm/h
press.,
hPa
HPBL,
m
4 march, thu
thu400:00+3wsw4781100 0.7 1025748
03:00+2sw487999 0.8 1026539
06:00+1wsw367160 0.0 1027340
09:00+4wsw135230 0.0 1027726
12:00+7nw12370 0.0 1025976
15:00+9nne11320 0.0 10241033
18:00+7ene22370 0.0 1025694
21:00+5e23480 0.0 1025214
5 march, fri
fri500:00+3sse11570 0.0 102424
03:00+2ssw11570 0.0 102322
06:00+1sw01570 0.0 102222
09:00+5ne11470 0.0 1020269
12:00+9ene22320 0.0 1019758
15:00+11ene22270 0.0 1017755
18:00+9ene22340 0.0 101951
21:00+7se11470 0.0 102123
6 march, sat
sat600:00+5s11550 0.0 102022
03:00+4wsw11560 0.0 102022
06:00+3ssw12540 0.0 102022
09:00+8w11370 0.0 1018124
12:00+14ne12210 0.0 1016350
15:00+17ene46161 0.0 10141103
18:00+13ne252420 0.0 1015128
21:00+10sw123859 0.0 101526
7 march, sun
sun700:00+9w244299 0.0 1014118
03:00+7wnw4951100 0.0 1015405
06:00+6nnw4786100 0.6 1019588
09:00+1wnw2493100 4.6 1021264
12:00+2wnw3577100 2.0 1022733
15:00+5nw4546100 2.2 10221346
18:00+3wnw235023 0.0 1023701
21:00+2nw125012 0.0 1025383
8 march, mon
mon800:000ne12564 0.0 1023296
03:000ene12592 0.0 1023245
06:00−1ene11610 0.0 1023178
09:00+1ene12480 0.0 1022601
12:00+5ene34390 0.0 10191241
15:00+6ne234215 0.0 10171390
18:00+5e225797 0.0 1018698
21:00+3ese127097 0.0 1020186